Regional Weather Roundup
Issued by NWS

Home | Current Version | Previous Version | Text Only | Print | Product List | Glossary On
Versions: 1 2 3 4 5 6 7 8 9 10 11 12 13 14 15 16 17 18 19 20 21 22 23 24 25 26 27 28 29 30 31 32 33 34 35 36 37 38 39 40 41 42 43 44 45 46 47 48 49 50
000
ASUS44 KJAN 012010
RWRMS

MISSISSIPPI HOURLY WEATHER ROUNDUP
NATIONAL WEATHER SERVICE JACKSON MS
300 PM CDT TUE SEP 01 2015

NOTE: "FAIR: INDICATES FEW OR NO CLOUDS BELOW 12,000 FEET WITH NO
SIGNIFICANT WEATHER AND/OR OBSTRUCTIONS TO VISIBILITY.

MSZ001>002-007>008-010>013-018>021-025>028-034>036-012100-
NORTHWEST MISSISSIPPI

CITY           SKY/WX    TMP DP  RH WIND       PRES   REMARKS
CLARKSDALE     FAIR      90  72  55 E6        30.06F HX  96
CLEVELAND      MOCLDY    91  69  47 W6        30.03F HX  95
GREENWOOD      CLOUDY    93  66  40 NE6       30.04S HX  96
GREENVILLE     CLOUDY    92  66  42 NW9       30.03F HX  94
OLIVE BRANCH   PTSUNNY   90  66  45 CALM      30.08F HX  92
OXFORD         FAIR      86  66  51 NE6       30.10F
TUNICA         PTCLDY    90  72  55 E3        30.07F HX  96
$$

MSZ003>006-009-014>017-022>024-029>033-037>039-012100-
NORTHEAST MISSISSIPPI

CITY           SKY/WX    TMP DP  RH WIND       PRES   REMARKS
COLUMBUS AFB   MOSUNNY   89  67  48 NE9       30.05F HX  92
CORINTH        MOCLDY    88  68  51 NE5       30.08S HX  91
GOLDN TRIANGLE MOSUNNY   90  64  43 NE8       30.06F HX  91
STARKVILLE     FAIR      88  64  45 NE6       30.06F
TUPELO         PTSUNNY   87  67  51 CALM      30.08S HX  90
$$

MSZ040-058-012100-
CENTRAL MISSISSIPPI

CITY           SKY/WX    TMP DP  RH WIND       PRES   REMARKS
JACKSON INTL   PTSUNNY   95  60  31 NW6       30.03F HX  95
JACKSON HAWKNS PTSUNNY   94  64  37 VRB6      30.04F HX  95
MERIDIAN KEY   PTSUNNY   90  66  45 CALM      30.05F HX  92
MERIDIAN NAS   MOSUNNY   91  68  46 NE5       30.05F HX  95
VICKSBURG      PTSUNNY   93  65  39 CALM      30.03F HX  95
$$

MSZ059>079-012100-
SOUTH MISSISSIPPI

CITY           SKY/WX    TMP DP  RH WIND       PRES   REMARKS
BROOKHAVEN     FAIR      95  64  36 S8        30.05F HX  97
HATTIESBURG    MOSUNNY   96  63  33 S9        30.04F HX  97
MCCOMB         PTSUNNY   92  63  38 SE7       30.04F HX  93
NATCHEZ        PTSUNNY   91  68  46 W8        30.04F HX  95
PINE BELT      MOSUNNY   93  57  29 S5        30.06F HX  92
$$

MSZ080>082-012100-
COASTAL MISSISSIPPI

CITY           SKY/WX    TMP DP  RH WIND       PRES   REMARKS
BAY ST LOUIS   MOSUNNY   90  59  35 S10       30.06R
BILOXI         PTSUNNY   89  66  46 S9        30.05S HX  91
PASCAGOULA     MOSUNNY   91  69  48 VRB6      30.05S HX  96
GULFPORT       PTSUNNY   89  64  43 S7        30.05S HX  90
$$


USA.gov is the U.S. government's official web portal to all federal, state and local government web resources and services.